星链-34586 (STARLINK-34586)

导读

STARLINK-34586是美国SpaceX公司星链星座的一员,于2025年7月26日发射入轨。星链计划旨在构建全球低轨卫星通信网络,为全球用户提供高速宽带互联网服务,同时也具备一定的军事应用潜力。该卫星采用霍尔推进器,设计寿命5-7年,退役后会主动离轨再入大气层烧毁,减少空间垃圾产生,目前已在轨正常运行。

基本信息
目录编号:
64950
目录名称:
STARLINK-34586
国际标识:
2025-158U
轨道中心:
EARTH
卫星名称:
星链-34586
卫星全名:
星链-34586 (STARLINK-34586)
卫星状态:
在轨 (已飞行406 天)
发射日期:
2025-07-26 UTC
国别 :
美国 (US)
星等 :
--
轨道信息
数据来源 国际轨道数据 AOE轨道数据
星历时间 2026-09-05T04:37:04+0800
16小时前
查看轨道信息
2026-09-03T09:00:00+0800
2天前
查看轨道信息
半长轴 6926.181km 6927.596km
偏心率 0.0001786 0.0002381
轨道倾角 97.284° 97.285°
近地点辐角 32.079° 81.174°
升交点赤经 106.455° 104.738°
平近点角 328.055° 152.636°
近地点 546.806km 547.809km
远地点 549.282km 551.109km
周期 95.609分钟 95.639分钟
每日圈数 15.061285 15.056671
详细信息
固有亮度:
5
最大亮度:
2.5
卫星平台:
Starlink V1.0
覆盖范围:
全球
运营商:
太空探索技术公司
运营商所在国:
美国
制造商(研发单位):
太空探索技术公司
制造商所在国:
美国
使用方式:
暂无
卫星简介
Starlink 计划是 SpaceX 推出的全球卫星互联网项目,通过发射低轨道卫星,为全球尤其是偏远地区提供高速、低延迟的互联网服务。自 2019 年起,Starlink 已部署数千颗卫星,旨在缩小全球数字鸿沟,推动互联网普及。该项目还为军事、航空等行业提供通信支持,带来广泛经济效益。
2D轨道图
3D轨道图
轨道高度分析图
轨道倾角分析图
轨道综合分析图
查看轨道综合分析图
交会数据列表
事件ID 空间交会对象 最接近时刻(TCA) 交会距离 交会风险概率(CRP) 交会风险指数(CRI) 操作
CDM_260906-091500-360906-495022
2026-09-06T
09:15:41+0000
1.201 km
极远距离
1.457422E-5 中风险 0.58
CDM_260907-212006-320706-495021
2026-09-07T
21:20:08+0000
1.526 km
极远距离
5.55421E-6 低风险 0.5
CDM_260905-175006-495006-506421
2026-09-05T
17:50:41+0000
2.378 km
极远距离
1.899828E-6 低风险 0.41
CDM_260906-014505-346806-495021
2026-09-06T
01:45:17+0000
2.594 km
极远距离
1.446191E-6 低风险 0.38